Weather observations for the past three days for
Roseburg Regional Airport
Metric (Imperial)
Date Time (pdt) Wind (kph) Vis. (km) Weather Sky Cond. Temperature (ºC) Relative Humidity Wind Chill (°C) Heat Index (°C) Pressure Precipitation (cm)
Air Dwpt 6 hour altimeter (cm) sea level (mb) 1 hr 3 hr 6 hr
Max. Min.
04 19:53 NW 11 16.09 Mostly Cloudy BKN023 15.6 10 70% 75.97 1012.9
04 18:53 NW 15 16.09 Overcast OVC028 17.8 10 60% 75.95 1012.4
04 17:53 NW 20 G 31 16.09 Fair CLR 18.9 10.6 59% 75.92 1012.2
04 16:53 N 19 G 43 16.09 Fair CLR 20.6 11.1 21.1 14.4 55% 75.92 1012.1
04 15:53 N 20 G 33 16.09 Fair CLR 20.6 10.6 53% 75.95 1012.3
04 14:53 NE 9 16.09 Partly Cloudy SCT030 19.4 10.6 57% 76 1013.0
04 13:53 NE 11 16.09 Mostly Cloudy BKN028 18.3 10.6 61% 76.02 1013.5
04 12:53 NE 7 16.09 Overcast OVC023 16.1 10 67% 76.07 1014.1
04 11:53 NW 7 16.09 Overcast OVC021 15.6 10 70% 76.1 1014.4
04 10:53 N 7 16.09 Overcast OVC018 14.4 10 14.4 12.2 75% 76.1 1014.5
04 09:53 Calm 16.09 Overcast OVC018 13.9 10 78% 76.1 1014.3
04 08:53 Calm 16.09 Overcast OVC015 13.3 10 81% 76.07 1014.2
04 07:53 N 9 16.09 Overcast OVC016 13.3 9.4 77% 76.07 1014.0
04 06:53 N 11 16.09 Overcast OVC018 12.8 9.4 80% 76.05 1013.5
04 05:53 NE 7 16.09 Overcast OVC017 12.2 9.4 83% 76 1013.1
04 04:53 N 7 16.09 Fair CLR 12.2 9.4 20 12.2 83% 75.97 1012.6
04 03:53 N 9 16.09 Fair CLR 12.8 9.4 80% 75.95 1012.3
04 02:53 N 11 16.09 Fair CLR 13.9 10 78% 75.95 1012.2
04 01:53 N 15 16.09 Fair CLR 14.4 10.6 78% 75.92 1012.0
04 00:53 N 11 16.09 Fair CLR 16.1 11.1 72% 75.9 1011.6
03 23:53 N 11 16.09 Fair CLR 17.8 11.1 65% 75.82 1010.7
03 22:53 N 11 16.09 Fair CLR 20 11.1 27.8 20 57% 75.77 1009.9
03 21:53 N 9 16.09 Fair CLR 22.2 12.2 53% 75.69 1009.0
03 20:53 Calm 16.09 A Few Clouds FEW100 23.9 8.9 39% 25 75.62 1007.9
03 19:53 Vrbl 9 16.09 Fair CLR 25 9.4 37% 26 75.57 1007.4
03 18:53 NE 26 G 52 16.09 Mostly Cloudy BKN120 26.1 8.3 32% 26 75.62 1007.8
03 17:53 E 7 16.09 Fair CLR 27.8 12.2 38% 27 75.57 1007.0
03 16:53 E 13 16.09 Fair CLR 27.8 12.2 29.4 18.3 38% 27 75.54 1006.7
03 15:53 N 7 16.09 Fair CLR 29.4 12.2 35% 29 75.57 1007.1
03 14:53 Calm 16.09 Fair CLR 28.3 13.3 40% 28 75.62 1007.9
03 13:53 Calm 16.09 Fair CLR 24.4 12.8 48% 26 75.69 1008.9
03 12:53 NW 9 16.09 Fair CLR 22.2 13.9 59% 75.77 1009.9
03 11:53 Calm 16.09 Fair CLR 20.6 12.2 59% 75.82 1010.5
03 10:53 Calm 16.09 Fair CLR 18.3 12.8 18.3 10.6 70% 75.84 1011.1
03 09:53 Calm 16.09 Fair CLR 13.3 12.2 93% 75.9 1011.6
03 08:53 Calm 9.66 Fog/Mist OVC002 11.7 11.7 100% 75.9 1011.9
03 07:53 S 6 0.40 Fog VV002 11.1 11.1 100% 75.92 1012.0
03 06:53 SE 6 0.40 Fog VV002 11.1 10.6 97% 75.9 1011.6
03 05:53 Calm 14.48 Overcast OVC003 10.6 10 96% 75.87 1011.4
03 04:53 Calm 16.09 Fair CLR 10.6 10 15.6 10.6 96% 75.87 1011.6
03 03:53 Calm 16.09 Fair CLR 11.1 10 93% 75.87 1011.5
03 02:53 Calm 16.09 Fair CLR 12.2 10.6 90% 75.84 1011.2
03 01:53 Calm 16.09 Fair CLR 12.2 11.1 93% 75.87 1011.6
03 00:53 Calm 16.09 Fair CLR 13.3 11.7 90% 75.87 1011.5
02 23:53 Calm 16.09 Fair CLR 14.4 11.7 84% 75.84 1011.2
02 22:53 Calm 16.09 Fair CLR 15.6 11.7 22.2 15.6 78% 75.84 1011.1
02 21:53 Calm 16.09 Fair CLR 17.8 12.2 70% 75.82 1010.9
02 20:53 N 7 16.09 Fair CLR 20 12.2 61% 75.79 1010.4
02 19:53 NE 9 16.09 Fair CLR 21.1 11.7 55% 75.79 1010.5
02 18:53 N 9 16.09 Fair CLR 21.1 11.7 55% 75.79 1010.2
02 17:53 Vrbl 9 16.09 Fair CLR 21.1 11.1 53% 75.79 1010.3
02 16:53 N 13 16.09 Fair CLR 20.6 10.6 20.6 12.2 53% 75.82 1010.6
02 15:53 N 13 16.09 Fair CLR 19.4 10 55% 75.9 1011.8
02 14:53 N 7 16.09 Fair CLR 17.8 10 60% 75.97 1012.7
02 13:53 SW 7 16.09 A Few Clouds FEW026 16.1 9.4 65% 76.02 1013.5
02 12:53 Calm 16.09 Overcast SCT022 OVC028 13.9 8.9 72% 76.07 1014.2
02 11:53 Calm 16.09 Overcast OVC020 12.8 7.8 72% 76.12 1014.8
02 10:53 Vrbl 6 16.09 Overcast OVC019 12.8 7.8 12.8 10.6 72% 76.15 1015.1
02 09:53 N 7 16.09 Overcast OVC017 11.7 7.2 74% 76.17 1015.5
02 08:53 N 7 16.09 Overcast OVC018 10.6 7.2 80% 76.17 1015.7
02 07:53 N 9 16.09 Overcast OVC016 10.6 7.2 80% 76.17 1015.6
02 06:53 N 7 16.09 Overcast OVC017 10.6 7.2 80% 76.17 1015.6
02 05:53 N 11 16.09 Overcast OVC018 10.6 6.7 77% 76.17 1015.4
02 04:53 N 9 16.09 Overcast OVC026 10.6 6.7 13.9 10.6 77% 76.2 1015.7
02 03:53 N 7 16.09 Mostly Cloudy SCT025 BKN037 BKN100 10.6 7.2 80% 76.2 1015.8
02 02:53 N 7 16.09 A Few Clouds FEW100 10.6 6.7 77% 76.2 1016.0
02 01:53 N 9 16.09 Fair CLR 11.7 6.7 72% 76.23 1016.3
02 00:53 N 13 16.09 Mostly Cloudy BKN041 12.2 6.7 69% 76.28 1016.7
01 23:53 N 9 16.09 Overcast OVC041 12.8 6.7 67% 76.28 1016.8
01 22:53 N 9 16.09 Overcast OVC044 13.9 6.7 21.1 13.9 62% 76.28 1016.8
01 21:53 N 13 16.09 Overcast OVC046 14.4 7.2 62% 76.28 1016.7
Date Time (pdt) Wind (kph) Vis. (km) Weather Sky Cond. Air Dwpt Max. Min. Relative Humidity Wind Chill (°C) Heat Index (°C) altimeter (cm) sea level (mb) 1 hr 3 hr 6 hr
6 hour
Temperature (ºC) Pressure Precipitation (cm)